View from above orbital plane
|
View from above satellite
|
Ground track
|
The orbit data is extracted from the following two-line orbital elements,
1 22803U 93059B 21104.51664285 -.00000132 00000-0 -42148-4 0 9997
2 22803 70.9909 184.7977 0015308 52.7248 307.5268 14.16833441425949
Epoch (UTC): | 14 April 2021 12:23:57 |
Eccentricity: | 0.0015308 |
inclination: | 70.9909° |
perigee height: | 825 km |
apogee height: | 847 km |
right ascension of ascending node: | 184.7977° |
argument of perigee: | 52.7248° |
revolutions per day: | 14.16833441 |
mean anomaly at epoch: | 307.5268° |
orbit number at epoch: | 42594 |
The dashed part of the orbit path shows where the satellite is in the earth's shadow,
|
|